When you browse on this site, cookies collect data to enhance your experience and personalize the content and advertising you see.
Visit our Privacy Policy to learn more. By continuing to use the site, you agree to this use of cookies and data.
  • în România
  • Lista ţărilor
  • Pe 7 zile
  • Temperatura apei
  • Hartă satelitară
  • Meteo pe hartă
  • Widget-uri
  • user-avatar
    Intrare

    Meteo pe oră la York

    Astăzi, 27 Iunie, Joi

    Timp Temperatura Precipitaţii Vânt Presiune Umiditate
    00:00 +9°C° 0 mm 1 m/s 773 mmHg 90%
    01:00 +9°C° 0 mm 1 m/s 773 mmHg 89%
    02:00 +8°C° 0 mm 1 m/s 773 mmHg 88%
    03:00 +8°C° 0 mm 1 m/s 773 mmHg 87%
    04:00 +9°C° 0 mm 1 m/s 773 mmHg 85%
    05:00 +11°C° 0 mm 1 m/s 773 mmHg 82%
    06:00 +12°C° 0 mm 1 m/s 772 mmHg 79%
    07:00 +14°C° 0 mm 1 m/s 773 mmHg 76%
    08:00 +16°C° 0 mm 1 m/s 773 mmHg 74%
    09:00 +19°C° 0 mm 1 m/s 773 mmHg 71%
    10:00 +19°C° 0 mm 2 m/s 773 mmHg 69%
    11:00 +20°C° 0 mm 2 m/s 773 mmHg 66%
    12:00 +21°C° 0 mm 3 m/s 773 mmHg 64%
    13:00 +21°C° 0 mm 3 m/s 772 mmHg 64%
    14:00 +21°C° 0 mm 3 m/s 772 mmHg 65%
    15:00 +21°C° 0 mm 4 m/s 772 mmHg 66%
    16:00 +20°C° 0 mm 4 m/s 772 mmHg 69%
    17:00 +19°C° 0 mm 4 m/s 772 mmHg 73%
    18:00 +18°C° 0 mm 4 m/s 771 mmHg 76%
    19:00 +16°C° 0 mm 3 m/s 771 mmHg 82%
    20:00 +13°C° 0 mm 3 m/s 772 mmHg 87%
    21:00 +12°C° 0 mm 2 m/s 772 mmHg 93%
    22:00 +12°C° 0 mm 2 m/s 772 mmHg 93%
    23:00 +10°C° 0 mm 2 m/s 772 mmHg 93%

    Mâine, 28 Iunie, Vineri

    Timp Temperatura Precipitaţii Vânt Presiune Umiditate
    00:00 +11°C° 0 mm 1 m/s 772 mmHg 94%
    01:00 +10°C° 0 mm 1 m/s 771 mmHg 94%
    02:00 +10°C° 0 mm 1 m/s 771 mmHg 94%
    03:00 +10°C° 0 mm 1 m/s 771 mmHg 94%
    04:00 +11°C° 0 mm 1 m/s 770 mmHg 93%
    05:00 +12°C° 0 mm 1 m/s 770 mmHg 91%
    06:00 +13°C° 0 mm 2 m/s 770 mmHg 90%
    07:00 +14°C° 0 mm 2 m/s 770 mmHg 85%
    08:00 +16°C° 0 mm 2 m/s 770 mmHg 79%
    09:00 +18°C° 0 mm 3 m/s 770 mmHg 74%
    10:00 +19°C° 0 mm 3 m/s 769 mmHg 73%
    11:00 +20°C° 0 mm 4 m/s 769 mmHg 71%
    12:00 +20°C° 0 mm 4 m/s 768 mmHg 69%
    13:00 +20°C° 0 mm 4 m/s 768 mmHg 69%
    14:00 +20°C° 0 mm 4 m/s 768 mmHg 69%
    15:00 +20°C° 0 mm 5 m/s 767 mmHg 70%
    16:00 +20°C° 0 mm 4 m/s 767 mmHg 72%
    17:00 +19°C° 0 mm 4 m/s 766 mmHg 74%
    18:00 +18°C° 0 mm 4 m/s 766 mmHg 76%
    19:00 +17°C° 0 mm 4 m/s 766 mmHg 81%
    20:00 +14°C° 0 mm 3 m/s 766 mmHg 87%
    21:00 +12°C° 0 mm 3 m/s 766 mmHg 92%
    22:00 +11°C° 0 mm 3 m/s 765 mmHg 92%
    23:00 +12°C° 0 mm 2 m/s 765 mmHg 92%

    Poimâine, 29 Iunie, Sâmbătă

    Timp Temperatura Precipitaţii Vânt Presiune Umiditate
    00:00 +10°C° 0 mm 2 m/s 765 mmHg 93%
    01:00 +10°C° 0 mm 2 m/s 765 mmHg 93%
    02:00 +10°C° 0 mm 2 m/s 764 mmHg 92%
    03:00 +10°C° 0 mm 2 m/s 764 mmHg 92%
    04:00 +12°C° 0 mm 2 m/s 763 mmHg 90%
    05:00 +13°C° 0 mm 2 m/s 763 mmHg 87%
    06:00 +13°C° 0 mm 3 m/s 762 mmHg 85%
    07:00 +16°C° 0 mm 3 m/s 762 mmHg 82%
    08:00 +18°C° 0 mm 4 m/s 761 mmHg 80%
    09:00 +20°C° 0 mm 4 m/s 761 mmHg 77%
    10:00 +21°C° 0 mm 4 m/s 761 mmHg 75%
    11:00 +23°C° 0 mm 4 m/s 760 mmHg 72%
    12:00 +26°C° 0 mm 5 m/s 760 mmHg 70%
    13:00 +26°C° 0 mm 5 m/s 759 mmHg 70%
    14:00 +27°C° 0 mm 5 m/s 759 mmHg 71%
    15:00 +28°C° 0 mm 5 m/s 758 mmHg 71%
    16:00 +27°C° 0 mm 5 m/s 758 mmHg 73%
    17:00 +27°C° 0 mm 4 m/s 757 mmHg 76%
    18:00 +27°C° 0 mm 4 m/s 757 mmHg 79%
    19:00 +25°C° 0.1 mm 4 m/s 757 mmHg 82%
    20:00 +22°C° 0.1 mm 4 m/s 757 mmHg 85%
    21:00 +21°C° 0.1 mm 4 m/s 757 mmHg 88%
    22:00 +19°C° 0 mm 4 m/s 757 mmHg 88%
    23:00 +17°C° 0 mm 4 m/s 757 mmHg 88%

    30 Iunie, Duminică

    Timp Temperatura Precipitaţii Vânt Presiune Umiditate
    00:00 +15°C° 0 mm 4 m/s 757 mmHg 88%
    01:00 +14°C° 0 mm 4 m/s 757 mmHg 89%
    02:00 +13°C° 0 mm 4 m/s 757 mmHg 91%
    03:00 +13°C° 0 mm 3 m/s 757 mmHg 92%
    04:00 +14°C° 0 mm 4 m/s 757 mmHg 89%
    05:00 +15°C° 0 mm 4 m/s 758 mmHg 87%
    06:00 +16°C° 0 mm 5 m/s 758 mmHg 85%
    07:00 +16°C° 0 mm 5 m/s 758 mmHg 81%
    08:00 +16°C° 0 mm 6 m/s 758 mmHg 78%
    09:00 +17°C° 0 mm 6 m/s 759 mmHg 75%
    10:00 +19°C° 0 mm 6 m/s 759 mmHg 72%
    11:00 +18°C° 0 mm 7 m/s 759 mmHg 69%
    12:00 +20°C° 0 mm 7 m/s 759 mmHg 66%
    13:00 +20°C° 0 mm 7 m/s 759 mmHg 66%
    14:00 +20°C° 0 mm 7 m/s 759 mmHg 66%
    15:00 +20°C° 0 mm 7 m/s 759 mmHg 66%
    16:00 +20°C° 0 mm 7 m/s 759 mmHg 68%
    17:00 +19°C° 0 mm 6 m/s 759 mmHg 70%
    18:00 +19°C° 0 mm 5 m/s 760 mmHg 72%
    19:00 +17°C° 0 mm 5 m/s 760 mmHg 75%
    20:00 +15°C° 0 mm 4 m/s 760 mmHg 78%
    21:00 +14°C° 0 mm 4 m/s 760 mmHg 81%
    22:00 +13°C° 0 mm 4 m/s 761 mmHg 83%
    23:00 +13°C° 0 mm 4 m/s 761 mmHg 85%

    1 Iulie, Luni

    Timp Temperatura Precipitaţii Vânt Presiune Umiditate
    00:00 +12°C° 0 mm 3 m/s 761 mmHg 88%
    01:00 +11°C° 0 mm 3 m/s 761 mmHg 88%
    02:00 +11°C° 0 mm 3 m/s 761 mmHg 88%
    03:00 +11°C° 0 mm 3 m/s 761 mmHg 89%
    04:00 +11°C° 0 mm 4 m/s 762 mmHg 85%
    05:00 +12°C° 0 mm 4 m/s 762 mmHg 82%
    06:00 +12°C° 0 mm 5 m/s 762 mmHg 78%
    07:00 +13°C° 0 mm 6 m/s 762 mmHg 74%
    08:00 +14°C° 0 mm 6 m/s 762 mmHg 70%
    09:00 +15°C° 0 mm 7 m/s 762 mmHg 66%
    10:00 +16°C° 0 mm 7 m/s 763 mmHg 64%
    11:00 +16°C° 0 mm 7 m/s 763 mmHg 63%
    12:00 +17°C° 0 mm 6 m/s 763 mmHg 62%
    13:00 +17°C° 0 mm 7 m/s 763 mmHg 62%
    14:00 +17°C° 0 mm 7 m/s 764 mmHg 63%
    15:00 +17°C° 0 mm 7 m/s 764 mmHg 63%
    16:00 +17°C° 0 mm 6 m/s 764 mmHg 65%
    17:00 +16°C° 0 mm 6 m/s 764 mmHg 67%
    18:00 +16°C° 0 mm 5 m/s 765 mmHg 69%
    19:00 +14°C° 0 mm 5 m/s 765 mmHg 73%
    20:00 +13°C° 0 mm 4 m/s 765 mmHg 76%
    21:00 +12°C° 0 mm 4 m/s 766 mmHg 80%
    22:00 +11°C° 0 mm 3 m/s 766 mmHg 84%
    23:00 +11°C° 0 mm 3 m/s 766 mmHg 87%

    2 Iulie, Marţi

    Timp Temperatura Precipitaţii Vânt Presiune Umiditate
    00:00 +10°C° 0 mm 2 m/s 766 mmHg 90%
    01:00 +10°C° 0 mm 2 m/s 767 mmHg 91%
    02:00 +10°C° 0 mm 2 m/s 767 mmHg 91%
    03:00 +10°C° 0 mm 2 m/s 767 mmHg 91%
    04:00 +10°C° 0 mm 2 m/s 767 mmHg 90%
    05:00 +12°C° 0 mm 2 m/s 768 mmHg 88%
    06:00 +13°C° 0 mm 2 m/s 768 mmHg 87%
    07:00 +13°C° 0 mm 2 m/s 768 mmHg 84%
    08:00 +14°C° 0 mm 2 m/s 768 mmHg 81%
    09:00 +14°C° 0 mm 2 m/s 768 mmHg 78%
    10:00 +16°C° 0 mm 2 m/s 768 mmHg 74%
    11:00 +17°C° 0 mm 2 m/s 768 mmHg 70%
    12:00 +18°C° 0 mm 2 m/s 768 mmHg 67%
    13:00 +18°C° 0 mm 2 m/s 768 mmHg 67%
    14:00 +17°C° 0 mm 2 m/s 768 mmHg 68%
    15:00 +17°C° 0 mm 2 m/s 768 mmHg 69%
    16:00 +17°C° 0 mm 2 m/s 768 mmHg 70%
    17:00 +17°C° 0 mm 2 m/s 768 mmHg 71%
    18:00 +17°C° 0 mm 2 m/s 767 mmHg 72%
    19:00 +16°C° 0 mm 2 m/s 767 mmHg 78%
    20:00 +14°C° 0 mm 2 m/s 767 mmHg 83%
    21:00 +12°C° 0 mm 2 m/s 767 mmHg 89%
    22:00 +12°C° 0 mm 2 m/s 767 mmHg 90%
    23:00 +10°C° 0 mm 2 m/s 767 mmHg 91%
    Arată mai mult